• In Hungary
  • List of Countries
  • For 7 days
  • Water Temperature
  • Satellite Maps
  • Weather Map
  • News
  • Weather Widgets
  • user-avatar
    Login

    Hourly Weather Horoshovo

    Today, 21 February, Wednesday

    Time Temperature Precipitation Wind Pressure Humidity
    00:00 -17°C° 0 mm 2 mps 743 mmHg 96%
    01:00 -17°C° 0 mm 2 mps 743 mmHg 97%
    02:00 -18°C° 0 mm 2 mps 743 mmHg 97%
    03:00 -18°C° 0 mm 2 mps 743 mmHg 98%
    04:00 -18°C° 0 mm 2 mps 743 mmHg 98%
    05:00 -18°C° 0 mm 2 mps 743 mmHg 98%
    06:00 -18°C° 0 mm 2 mps 743 mmHg 98%
    07:00 -18°C° 0 mm 2 mps 743 mmHg 98%
    08:00 -18°C° 0 mm 2 mps 743 mmHg 97%
    09:00 -17°C° 0 mm 2 mps 744 mmHg 94%
    10:00 -15°C° 0 mm 2 mps 744 mmHg 92%
    11:00 -14°C° 0 mm 2 mps 744 mmHg 89%
    12:00 -13°C° 0 mm 2 mps 744 mmHg 87%
    13:00 -12°C° 0 mm 2 mps 744 mmHg 85%
    14:00 -10°C° 0 mm 2 mps 744 mmHg 81%
    15:00 -12°C° 0 mm 2 mps 744 mmHg 84%
    16:00 -11°C° 0 mm 1 mps 744 mmHg 86%
    17:00 -12°C° 0 mm 1 mps 744 mmHg 89%
    18:00 -12°C° 0 mm 1 mps 744 mmHg 91%
    19:00 -13°C° 0 mm 1 mps 744 mmHg 92%
    20:00 -14°C° 0 mm 1 mps 744 mmHg 93%
    21:00 -15°C° 0 mm 1 mps 745 mmHg 94%
    22:00 -15°C° 0 mm 1 mps 745 mmHg 94%
    23:00 -16°C° 0 mm 1 mps 745 mmHg 95%

    Tomorrow, 22 February, Thursday

    Time Temperature Precipitation Wind Pressure Humidity
    00:00 -16°C° 0 mm 1 mps 745 mmHg 95%
    01:00 -17°C° 0 mm 1 mps 746 mmHg 96%
    02:00 -17°C° 0 mm 1 mps 746 mmHg 97%
    03:00 -18°C° 0 mm 1 mps 746 mmHg 97%
    04:00 -18°C° 0 mm 1 mps 746 mmHg 97%
    05:00 -18°C° 0 mm 1 mps 746 mmHg 98%
    06:00 -18°C° 0 mm 1 mps 746 mmHg 98%
    07:00 -18°C° 0 mm 1 mps 746 mmHg 98%
    08:00 -18°C° 0 mm 1 mps 746 mmHg 98%
    09:00 -16°C° 0 mm 1 mps 747 mmHg 94%
    10:00 -14°C° 0 mm 1 mps 747 mmHg 91%
    11:00 -12°C° 0 mm 1 mps 747 mmHg 87%
    12:00 -12°C° 0 mm 1 mps 747 mmHg 85%
    13:00 -11°C° 0 mm 1 mps 747 mmHg 83%
    14:00 -10°C° 0 mm 1 mps 747 mmHg 81%
    15:00 -11°C° 0 mm 1 mps 747 mmHg 84%
    16:00 -12°C° 0 mm 1 mps 746 mmHg 87%
    17:00 -13°C° 0 mm 1 mps 746 mmHg 90%
    18:00 -14°C° 0 mm 1 mps 746 mmHg 91%
    19:00 -15°C° 0 mm 1 mps 746 mmHg 92%
    20:00 -16°C° 0 mm 1 mps 746 mmHg 93%
    21:00 -16°C° 0 mm 1 mps 746 mmHg 94%
    22:00 -17°C° 0 mm 1 mps 746 mmHg 95%
    23:00 -18°C° 0 mm 1 mps 746 mmHg 96%

    Day after tomorrow, 23 February, Friday

    Time Temperature Precipitation Wind Pressure Humidity
    00:00 -18°C° 0 mm 1 mps 746 mmHg 97%
    01:00 -18°C° 0 mm 0 mps 746 mmHg 97%
    02:00 -19°C° 0 mm 0 mps 746 mmHg 98%
    03:00 -19°C° 0 mm 0 mps 746 mmHg 98%
    04:00 -19°C° 0 mm 0 mps 746 mmHg 98%
    05:00 -19°C° 0 mm 0 mps 746 mmHg 99%
    06:00 -19°C° 0 mm 0 mps 746 mmHg 99%
    07:00 -19°C° 0 mm 0 mps 746 mmHg 98%
    08:00 -19°C° 0 mm 0 mps 746 mmHg 98%
    09:00 -17°C° 0 mm 0 mps 746 mmHg 94%
    10:00 -15°C° 0 mm 0 mps 746 mmHg 90%
    11:00 -12°C° 0 mm 0 mps 746 mmHg 86%
    12:00 -12°C° 0 mm 0 mps 746 mmHg 84%
    13:00 -11°C° 0 mm 0 mps 745 mmHg 83%
    14:00 -11°C° 0 mm 0 mps 745 mmHg 81%
    15:00 -12°C° 0 mm 0 mps 745 mmHg 84%
    16:00 -13°C° 0 mm 0 mps 745 mmHg 87%
    17:00 -14°C° 0 mm 0 mps 745 mmHg 90%
    18:00 -15°C° 0 mm 0 mps 745 mmHg 92%
    19:00 -16°C° 0 mm 0 mps 745 mmHg 93%
    20:00 -17°C° 0 mm 0 mps 745 mmHg 95%
    21:00 -18°C° 0 mm 0 mps 745 mmHg 96%
    22:00 -18°C° 0 mm 1 mps 745 mmHg 96%
    23:00 -19°C° 0 mm 1 mps 745 mmHg 97%

    24 February, Saturday

    Time Temperature Precipitation Wind Pressure Humidity
    00:00 -19°C° 0 mm 1 mps 745 mmHg 98%
    01:00 -19°C° 0 mm 1 mps 745 mmHg 98%
    02:00 -19°C° 0 mm 1 mps 746 mmHg 98%
    03:00 -19°C° 0 mm 1 mps 746 mmHg 98%
    04:00 -19°C° 0 mm 1 mps 746 mmHg 99%
    05:00 -19°C° 0 mm 1 mps 746 mmHg 99%
    06:00 -19°C° 0 mm 1 mps 746 mmHg 98%
    07:00 -21°C° 0 mm 2 mps 747 mmHg 98%
    08:00 -21°C° 0 mm 2 mps 747 mmHg 98%
    09:00 -19°C° 0 mm 2 mps 747 mmHg 95%
    10:00 -18°C° 0 mm 2 mps 747 mmHg 92%
    11:00 -16°C° 0 mm 2 mps 748 mmHg 90%
    12:00 -16°C° 0 mm 2 mps 748 mmHg 89%
    13:00 -15°C° 0 mm 2 mps 748 mmHg 88%
    14:00 -14°C° 0 mm 2 mps 748 mmHg 86%
    15:00 -15°C° 0 mm 2 mps 748 mmHg 89%
    16:00 -16°C° 0 mm 2 mps 748 mmHg 91%
    17:00 -16°C° 0 mm 2 mps 748 mmHg 93%
    18:00 -17°C° 0 mm 2 mps 748 mmHg 94%
    19:00 -18°C° 0 mm 2 mps 748 mmHg 95%
    20:00 -19°C° 0 mm 2 mps 748 mmHg 97%
    21:00 -20°C° 0 mm 2 mps 748 mmHg 97%
    22:00 -21°C° 0 mm 2 mps 748 mmHg 98%
    23:00 -21°C° 0 mm 2 mps 748 mmHg 99%

    25 February, Sunday

    Time Temperature Precipitation Wind Pressure Humidity
    00:00 -23°C° 0 mm 2 mps 748 mmHg 99%
    01:00 -23°C° 0 mm 2 mps 748 mmHg 99%
    02:00 -24°C° 0 mm 2 mps 748 mmHg 99%
    03:00 -24°C° 0 mm 2 mps 748 mmHg 98%
    04:00 -25°C° 0 mm 2 mps 748 mmHg 98%
    05:00 -25°C° 0 mm 2 mps 747 mmHg 98%
    06:00 -25°C° 0 mm 2 mps 747 mmHg 98%
    07:00 -25°C° 0 mm 2 mps 747 mmHg 97%
    08:00 -25°C° 0 mm 2 mps 747 mmHg 97%
    09:00 -24°C° 0 mm 2 mps 747 mmHg 95%
    10:00 -23°C° 0 mm 2 mps 747 mmHg 92%
    11:00 -20°C° 0 mm 2 mps 747 mmHg 89%
    12:00 -20°C° 0 mm 2 mps 747 mmHg 88%
    13:00 -19°C° 0 mm 2 mps 747 mmHg 87%
    14:00 -18°C° 0 mm 2 mps 746 mmHg 85%
    15:00 -18°C° 0 mm 2 mps 746 mmHg 88%
    16:00 -19°C° 0 mm 2 mps 746 mmHg 91%
    17:00 -19°C° 0 mm 2 mps 746 mmHg 94%
    18:00 -18°C° 0 mm 1 mps 745 mmHg 95%
    19:00 -18°C° 0 mm 1 mps 745 mmHg 96%
    20:00 -19°C° 0 mm 1 mps 745 mmHg 97%
    21:00 -18°C° 0 mm 1 mps 745 mmHg 98%
    22:00 -18°C° 0 mm 1 mps 745 mmHg 98%
    23:00 -18°C° 0 mm 1 mps 744 mmHg 98%

    26 February, Monday

    Time Temperature Precipitation Wind Pressure Humidity
    00:00 -18°C° 0 mm 1 mps 744 mmHg 98%
    01:00 -18°C° 0 mm 1 mps 744 mmHg 98%
    02:00 -18°C° 0 mm 1 mps 744 mmHg 98%
    03:00 -18°C° 0 mm 1 mps 743 mmHg 98%
    04:00 -18°C° 0 mm 1 mps 743 mmHg 98%
    05:00 -18°C° 0 mm 1 mps 743 mmHg 98%
    06:00 -18°C° 0 mm 1 mps 743 mmHg 98%
    07:00 -18°C° 0 mm 1 mps 743 mmHg 97%
    08:00 -18°C° 0 mm 1 mps 743 mmHg 97%
    09:00 -17°C° 0 mm 1 mps 743 mmHg 93%
    10:00 -16°C° 0 mm 1 mps 743 mmHg 90%
    11:00 -15°C° 0 mm 1 mps 743 mmHg 86%
    12:00 -14°C° 0.1 mm 1 mps 743 mmHg 85%
    13:00 -14°C° 0.1 mm 1 mps 743 mmHg 84%
    14:00 -14°C° 0.1 mm 1 mps 743 mmHg 82%
    15:00 -14°C° 0.1 mm 1 mps 743 mmHg 86%
    16:00 -17°C° 0.1 mm 2 mps 743 mmHg 89%
    17:00 -18°C° 0.1 mm 2 mps 743 mmHg 93%
    18:00 -19°C° 0 mm 2 mps 743 mmHg 94%
    19:00 -20°C° 0 mm 2 mps 743 mmHg 95%
    20:00 -20°C° 0 mm 2 mps 744 mmHg 96%
    21:00 -21°C° 0 mm 2 mps 744 mmHg 97%
    22:00 -23°C° 0 mm 2 mps 744 mmHg 97%
    23:00 -23°C° 0 mm 2 mps 744 mmHg 97%
    Show more